Roseau, MN

10:02 PM CDT on March 27, 2017 (GMT -0500)
Roseau Municipal-Billberg

Weather History for KROX - September, 2013

Change the Weather History Date:

Tuesday, September 17, 2013

  Actual Average Record
Temperature  
Mean Temperature 58 °F -  
Max Temperature 66 °F 67 °F 88 °F (1989)
Min Temperature 50 °F 42 °F 23 °F (1959)
Degree Days  
Heating Degree Days 7    
Growing Degree Days 8 (Base 50)    
Moisture  
Dew Point 51 °F    
Average Humidity 75    
Maximum Humidity 82    
Minimum Humidity 60    
Precipitation  
Precipitation 0.00 in - - ()
Sea Level Pressure  
Sea Level Pressure 29.94 in    
Wind  
Wind Speed 13 mph (South)    
Max Wind Speed 22 mph    
Max Gust Speed 28 mph    
Visibility 9 miles    
Events      
Averages and records for this station are not official NWS values.
T = Trace of Precipitation, MM = Missing Value Source: NWS Daily Summary

Daily Weather History Graph

Daily Weather History Graph

Search for Another Location

Airport or City:

Trip Planner

Search our weather history database for the weather conditions in past years. The results will help you decide how hot, cold, wet, or windy it might be!

Date:

Astronomy

Sep. 17, 2013 Rise Set
Actual Time 7:02 AM CDT 7:30 PM CDT
Civil Twilight 6:30 AM CDT 8:02 PM CDT
Nautical Twilight 5:53 AM CDT 8:39 PM CDT
Astronomical Twilight 5:14 AM CDT 9:18 PM CDT
Moon 6:22 PM CDT (9/17) 4:51 AM CDT (9/17)
Length of Visible Light 13h 31m
Length of Day
12h 28m
Waxing Gibbous, 96% of the Moon is Illuminated
Sep 17
Waxing Gibbous
Sep 19
Full
Sep 26
Last Quarter
Oct 4
New
Oct 11
First Quarter

Hourly Weather History & Observations

Time (CDT) Temp. Dew Point Humidity Pressure Visibility Wind Dir Wind Speed Gust Speed Precip Events Conditions
12:14 AM 50.0 °F 41.0 °F 71% 30.11 in 10.0 mi South 8.1 mph - N/A   Clear
12:34 AM 50.0 °F 41.0 °F 71% 30.11 in 10.0 mi South 8.1 mph - N/A   Clear
12:54 AM 50.0 °F 41.0 °F 71% 30.10 in 10.0 mi South 9.2 mph - N/A   Clear
1:14 AM 51.8 °F 42.8 °F 71% 30.10 in 10.0 mi South 10.4 mph - N/A   Clear
1:34 AM 51.8 °F 42.8 °F 71% 30.09 in 10.0 mi South 11.5 mph - N/A   Clear
1:54 AM 51.8 °F 42.8 °F 71% 30.09 in 10.0 mi South 11.5 mph - N/A   Clear
2:14 AM 50.0 °F 42.8 °F 76% 30.09 in 10.0 mi South 11.5 mph - N/A   Clear
2:34 AM 50.0 °F 42.8 °F 76% 30.09 in 10.0 mi South 12.7 mph - N/A   Clear
2:54 AM 50.0 °F 42.8 °F 76% 30.08 in 10.0 mi South 13.8 mph - N/A   Clear
3:14 AM 50.0 °F 42.8 °F 76% 30.08 in 10.0 mi South 13.8 mph - N/A   Clear
3:34 AM 51.8 °F 44.6 °F 76% 30.08 in 10.0 mi South 12.7 mph - N/A   Clear
3:54 AM 51.8 °F 44.6 °F 76% 30.07 in 10.0 mi South 12.7 mph - N/A   Clear
4:14 AM 51.8 °F 44.6 °F 76% 30.06 in 7.0 mi South 12.7 mph - N/A   Clear
4:34 AM 51.8 °F 44.6 °F 76% 30.05 in 10.0 mi South 15.0 mph - N/A   Clear
4:54 AM 51.8 °F 44.6 °F 76% 30.04 in 10.0 mi South 12.7 mph - N/A   Clear
5:14 AM 51.8 °F 44.6 °F 76% 30.04 in 10.0 mi South 13.8 mph - N/A   Clear
5:34 AM 51.8 °F 44.6 °F 76% 30.03 in 10.0 mi South 15.0 mph - N/A   Clear
5:54 AM 51.8 °F 46.4 °F 82% 30.02 in 7.0 mi South 13.8 mph - N/A   Clear
6:14 AM 51.8 °F 46.4 °F 82% 30.02 in 10.0 mi South 13.8 mph - N/A   Clear
6:34 AM 51.8 °F 46.4 °F 82% 30.01 in 10.0 mi South 13.8 mph - N/A   Clear
6:54 AM 51.8 °F 46.4 °F 82% 30.01 in 10.0 mi South 13.8 mph - N/A   Clear
7:14 AM 51.8 °F 46.4 °F 82% 30.00 in 10.0 mi South 13.8 mph - N/A   Clear
7:34 AM 51.8 °F 46.4 °F 82% 30.00 in 10.0 mi South 11.5 mph - N/A   Clear
7:54 AM 53.6 °F 48.2 °F 82% 30.00 in 10.0 mi South 17.3 mph 21.9 mph N/A   Clear
8:14 AM 53.6 °F 48.2 °F 82% 29.99 in 7.0 mi South 19.6 mph 25.3 mph N/A   Clear
8:34 AM 55.4 °F 48.2 °F 77% 29.98 in 7.0 mi South 18.4 mph 21.9 mph N/A   Clear
8:54 AM 57.2 °F 50.0 °F 77% 29.98 in 10.0 mi South 20.7 mph 25.3 mph N/A   Clear
9:14 AM 57.2 °F 50.0 °F 77% 29.97 in 10.0 mi South 19.6 mph 26.5 mph N/A   Clear
9:34 AM 60.8 °F 51.8 °F 72% 29.96 in 10.0 mi South 20.7 mph 27.6 mph N/A   Clear
9:54 AM 60.8 °F 51.8 °F 72% 29.96 in 3.0 mi South 21.9 mph 26.5 mph N/A   Haze
10:14 AM 62.6 °F 51.8 °F 68% 29.96 in 3.0 mi South 19.6 mph 25.3 mph N/A   Haze
10:34 AM 64.4 °F 51.8 °F 64% 29.95 in 3.0 mi South 19.6 mph 25.3 mph N/A   Haze
10:54 AM 64.4 °F 51.8 °F 64% 29.95 in 5.0 mi South 19.6 mph 26.5 mph N/A   Haze
11:14 AM 66.2 °F 51.8 °F 60% 29.95 in 4.0 mi South 19.6 mph 25.3 mph N/A   Haze
11:34 AM 66.2 °F 51.8 °F 60% 29.94 in 5.0 mi South 16.1 mph - N/A   Haze
11:54 AM 64.4 °F 51.8 °F 64% 29.94 in 4.0 mi South 16.1 mph 20.7 mph N/A   Haze
12:14 PM 64.4 °F 53.6 °F 68% 29.94 in 4.0 mi South 16.1 mph 23.0 mph N/A   Haze
12:34 PM 64.4 °F 53.6 °F 68% 29.93 in 2.5 mi South 19.6 mph 24.2 mph N/A   Haze
12:54 PM 64.4 °F 53.6 °F 68% 29.92 in 4.0 mi South 12.7 mph - N/A   Haze
1:14 PM 64.4 °F 53.6 °F 68% 29.92 in 3.0 mi South 16.1 mph 21.9 mph N/A   Haze
1:34 PM 64.4 °F 53.6 °F 68% 29.91 in 5.0 mi South 18.4 mph 24.2 mph N/A   Haze
1:54 PM 64.4 °F 53.6 °F 68% 29.90 in 10.0 mi South 17.3 mph 23.0 mph N/A   Overcast
2:14 PM 64.4 °F 55.4 °F 73% 29.89 in 10.0 mi South 17.3 mph 25.3 mph N/A   Mostly Cloudy
2:34 PM 64.4 °F 55.4 °F 73% 29.88 in 10.0 mi South 17.3 mph 25.3 mph N/A   Mostly Cloudy
2:54 PM 64.4 °F 55.4 °F 73% 29.88 in 10.0 mi South 18.4 mph 23.0 mph N/A   Mostly Cloudy
3:14 PM 62.6 °F 53.6 °F 72% 29.88 in 10.0 mi South 19.6 mph 23.0 mph N/A   Overcast
3:34 PM 64.4 °F 55.4 °F 73% 29.87 in 10.0 mi South 17.3 mph 20.7 mph N/A   Overcast
3:54 PM 64.4 °F 55.4 °F 73% 29.86 in 10.0 mi SSE 13.8 mph 18.4 mph N/A   Overcast
4:14 PM 64.4 °F 55.4 °F 73% 29.85 in 10.0 mi South 17.3 mph - N/A   Mostly Cloudy
4:34 PM 64.4 °F 55.4 °F 73% 29.85 in 10.0 mi South 17.3 mph 20.7 mph N/A   Mostly Cloudy
4:54 PM 64.4 °F 55.4 °F 73% 29.84 in 10.0 mi South 12.7 mph - N/A   Overcast
5:14 PM 64.4 °F 55.4 °F 73% 29.84 in 10.0 mi South 15.0 mph - N/A   Overcast
5:35 PM 64.4 °F 55.4 °F 73% 29.84 in 10.0 mi South 15.0 mph 19.6 mph N/A   Overcast
5:54 PM 64.4 °F 55.4 °F 73% 29.84 in 10.0 mi South 13.8 mph 17.3 mph N/A   Overcast
6:14 PM 64.4 °F 55.4 °F 73% 29.83 in 10.0 mi South 13.8 mph - N/A   Overcast
6:35 PM 64.4 °F 55.4 °F 73% 29.82 in 10.0 mi South 12.7 mph 19.6 mph N/A   Overcast
6:54 PM 64.4 °F 55.4 °F 73% 29.82 in 10.0 mi South 9.2 mph 16.1 mph N/A   Overcast
7:14 PM 64.4 °F 55.4 °F 73% 29.82 in 10.0 mi South 16.1 mph 23.0 mph N/A   Overcast
7:35 PM 62.6 °F 55.4 °F 77% 29.82 in 10.0 mi South 13.8 mph - N/A   Overcast
7:54 PM 62.6 °F 55.4 °F 77% 29.82 in 10.0 mi South 12.7 mph - N/A   Overcast
8:15 PM 62.6 °F 55.4 °F 77% 29.82 in 10.0 mi South 15.0 mph - N/A   Overcast
8:34 PM 62.6 °F 55.4 °F 77% 29.82 in 10.0 mi South 11.5 mph - N/A   Overcast
8:55 PM 62.6 °F 55.4 °F 77% 29.82 in 10.0 mi South 12.7 mph - N/A   Overcast
9:14 PM 60.8 °F 55.4 °F 82% 29.82 in 10.0 mi South 13.8 mph - N/A   Overcast
9:34 PM 60.8 °F 55.4 °F 82% 29.82 in 10.0 mi South 11.5 mph - N/A   Overcast
9:54 PM 60.8 °F 55.4 °F 82% 29.82 in 10.0 mi South 9.2 mph - N/A   Overcast
10:14 PM 60.8 °F 55.4 °F 82% 29.82 in 10.0 mi South 10.4 mph - N/A   Overcast
10:34 PM 60.8 °F 55.4 °F 82% 29.82 in 10.0 mi South 10.4 mph - N/A   Overcast
10:54 PM 60.8 °F 55.4 °F 82% 29.82 in 10.0 mi South 11.5 mph 16.1 mph N/A   Overcast
11:14 PM 60.8 °F 55.4 °F 82% 29.82 in 10.0 mi South 9.2 mph - N/A   Overcast
11:34 PM 60.8 °F 55.4 °F 82% 29.82 in 10.0 mi South 9.2 mph - N/A   Overcast
11:54 PM 60.8 °F 55.4 °F 82% 29.82 in 7.0 mi South 10.4 mph - N/A   Overcast